FW3187 Weather Reports


time (UTC)temp
C
wind
direction
speed
KPH
gust
KPH
rain 1hr
cm
rain 24hr
cm
rain mn
cm
humidity
%
barometer
mb
20260906234524 25 190 20.9 37.0 0.00 0.00 0.00 10 1012.2
20260906234003 26 193 19.3 37.0 0.00 0.00 0.00 9 1012.2
20260906233526 25 205 9.7 29.0 0.00 0.00 0.00 9 1012.6
20260906233503 26 195 17.7 35.4 0.00 0.00 0.00 9 1012.4
20260906233047 25 204 12.9 33.8 0.00 0.00 0.00 9 1012.7
20260906233024 26 192 19.3 35.4 0.00 0.00 0.00 9 1012.4
20260906232606 25 196 22.5 35.4 0.00 0.00 0.00 9 1012.7
20260906232503 26 190 14.5 33.8 0.00 0.00 0.00 10 1012.4
20260906232003 26 193 12.9 27.4 0.00 0.00 0.00 11 1012.4
20260906231516 26 215 9.7 22.5 0.00 0.00 0.00 12 1012.7
20260906231503 26 200 14.5 32.2 0.00 0.00 0.00 12 1012.4
20260906231032 26 222 12.9 32.2 0.00 0.00 0.00 10 1012.9
20260906231003 26 199 17.7 32.2 0.00 0.00 0.00 10 1012.4
20260906230503 26 193 19.3 35.4 0.00 0.00 0.00 10 1012.4
20260906230058 25 180 20.9 35.4 0.00 0.00 0.00 10 1012.7
20260906230003 26 197 19.3 35.4 0.00 0.00 0.00 10 1012.4
20260906225503 26 204 19.3 35.4 0.00 0.00 0.00 9 1012.4
20260906225023 26 211 11.3 40.2 0.00 0.00 0.00 10 1012.5
20260906225003 26 208 19.3 33.8 0.00 0.00 0.00 8 1012.3
20260906224545 26 226 9.7 40.2 0.00 0.00 0.00 8 1012.7
20260906224503 26 204 17.7 40.2 0.00 0.00 0.00 8 1012.3
20260906224102 26 215 16.1 40.2 0.00 0.00 0.00 8 1012.6
20260906224003 26 192 20.9 40.2 0.00 0.00 0.00 9 1012.3
20260906223510 26 192 16.1 40.2 0.00 0.00 0.00 7 1012.7
20260906223503 26 196 22.5 38.6 0.00 0.00 0.00 7 1012.6
20260906223031 26 206 24.1 35.4 0.00 0.00 0.00 7 1012.7
20260906223003 26 198 20.9 35.4 0.00 0.00 0.00 7 1012.6
20260906222549 26 191 29.0 41.8 0.00 0.00 0.00 7 1012.8
20260906222503 26 195 22.5 41.8 0.00 0.00 0.00 7 1012.6
20260906222012 26 188 8.0 48.3 0.00 0.00 0.00 7 1013.0
20260906222003 26 198 24.1 48.3 0.00 0.00 0.00 7 1012.5
20260906221533 26 184 27.4 48.3 0.00 0.00 0.00 6 1012.9
20260906221503 27 194 22.5 48.3 0.00 0.00 0.00 7 1012.5
20260906221021 27 188 20.9 41.8 0.00 0.00 0.00 7 1012.7
20260906221003 27 184 24.1 45.1 0.00 0.00 0.00 7 1012.5
20260906220538 27 211 22.5 46.7 0.00 0.00 0.00 7 1013.0
20260906220503 27 180 22.5 46.7 0.00 0.00 0.00 7 1012.6
20260906220059 27 185 24.1 46.7 0.00 0.00 0.00 6 1012.9
20260906220003 27 190 19.3 46.7 0.00 0.00 0.00 5 1012.6
20260906215505 27 186 29.0 37.0 0.00 0.00 0.00 7 1013.1
20260906215503 27 197 19.3 37.0 0.00 0.00 0.00 7 1012.6
20260906215022 27 174 20.9 33.8 0.00 0.00 0.00 8 1012.8
20260906215003 27 185 19.3 38.6 0.00 0.00 0.00 8 1012.7
20260906214545 27 205 11.3 35.4 0.00 0.00 0.00 7 1012.8
20260906214503 27 181 22.5 41.8 0.00 0.00 0.00 6 1012.7
20260906214100 27 195 12.9 37.0 0.00 0.00 0.00 6 1012.9
20260906214024 27 181 24.1 45.1 0.00 0.00 0.00 7 1012.7
20260906213509 27 179 11.3 41.8 0.00 0.00 0.00 6 1013.0
20260906213503 27 196 24.1 45.1 0.00 0.00 0.00 6 1012.6
20260906213029 27 168 25.7 41.8 0.00 0.00 0.00 7 1013.0
20260906213003 27 210 20.9 45.1 0.00 0.00 0.00 7 1012.6
20260906212546 27 217 38.6 45.1 0.00 0.00 0.00 6 1012.9
20260906212503 27 201 20.9 45.1 0.00 0.00 0.00 8 1012.6
20260906212035 27 185 12.9 45.1 0.00 0.00 0.00 5 1012.9
20260906212003 27 189 20.9 43.5 0.00 0.00 0.00 5 1013.0
20260906211553 27 182 20.9 40.2 0.00 0.00 0.00 9 1013.1
20260906211503 27 178 19.3 41.8 0.00 0.00 0.00 9 1013.0
20260906211003 27 175 20.9 48.3 0.00 0.00 0.00 7 1013.0
20260906210505 27 215 14.5 48.3 0.00 0.00 0.00 7 1013.4
20260906210503 27 181 25.7 48.3 0.00 0.00 0.00 7 1013.1
20260906210003 27 192 24.1 46.7 0.00 0.00 0.00 6 1013.5
20260906205524 27 197 24.1 46.7 0.00 0.00 0.00 8 1013.5
20260906205517 27 198 22.5 45.1 0.00 0.00 0.00 8 1013.4
20260906205035 27 213 14.5 45.1 0.00 0.00 0.00 7 1013.5
20260906205003 27 197 22.5 46.7 0.00 0.00 0.00 6 1013.5
20260906204557 27 193 24.1 37.0 0.00 0.00 0.00 7 1013.7
20260906204503 27 195 20.9 48.3 0.00 0.00 0.00 6 1013.3
20260906204003 27 185 22.5 48.3 0.00 0.00 0.00 7 1013.3
20260906203511 27 200 32.2 48.3 0.00 0.00 0.00 8 1013.9
20260906203503 27 181 19.3 46.7 0.00 0.00 0.00 8 1013.3
20260906203031 27 200 19.3 51.5 0.00 0.00 0.00 8 1013.9
20260906203003 27 190 24.1 51.5 0.00 0.00 0.00 8 1013.7
20260906202546 26 183 24.1 51.5 0.00 0.00 0.00 10 1014.1
20260906202503 27 198 27.4 51.5 0.00 0.00 0.00 10 1013.7
20260906202215 26 190 33.8 51.5 0.00 0.00 0.00 10 1014.2
20260906202003 27 199 25.7 51.5 0.00 0.00 0.00 8 1013.7
20260906201524 27 203 24.1 49.9 0.00 0.00 0.00 8 1013.6
20260906201515 27 169 30.6 49.9 0.00 0.00 0.00 8 1014.1
20260906201032 27 194 33.8 49.9 0.00 0.00 0.00 9 1014.1
20260906201003 27 204 19.3 49.9 0.00 0.00 0.00 9 1013.6
20260906200524 27 197 19.3 38.6 0.00 0.00 0.00 10 1013.6
20260906200055 26 215 20.9 41.8 0.00 0.00 0.00 9 1014.0
20260906200003 27 204 24.1 56.3 0.00 0.00 0.00 11 1013.7
20260906195610 26 175 29.0 49.9 0.00 0.00 0.00 9 1013.9
20260906195524 26 204 24.1 56.3 0.00 0.00 0.00 9 1013.7
20260906195020 26 207 38.6 41.8 0.00 0.00 0.00 10 1014.0
20260906195003 27 199 22.5 43.5 0.00 0.00 0.00 10 1013.7
20260906194539 26 205 16.1 40.2 0.00 0.00 0.00 12 1014.1
20260906194503 26 201 27.4 46.7 0.00 0.00 0.00 11 1013.5
20260906194057 26 186 25.7 43.5 0.00 0.00 0.00 9 1014.1
20260906194003 26 200 25.7 46.7 0.00 0.00 0.00 9 1013.5
20260906193506 26 184 41.8 46.7 0.00 0.00 0.00 10 1014.1
20260906193503 27 190 17.7 46.7 0.00 0.00 0.00 10 1013.5
20260906193024 26 163 19.3 33.8 0.00 0.00 0.00 12 1014.0
20260906193003 27 180 16.1 35.4 0.00 0.00 0.00 13 1013.9
20260906192540 26 197 8.0 33.8 0.00 0.00 0.00 12 1014.1
20260906192503 26 169 16.1 35.4 0.00 0.00 0.00 10 1013.9
20260906192026 26 196 29.0 35.4 0.00 0.00 0.00 10 1014.0
20260906192003 26 173 17.7 37.0 0.00 0.00 0.00 10 1014.0
20260906191546 26 199 11.3 35.4 0.00 0.00 0.00 13 1014.3
20260906191503 26 170 20.9 37.0 0.00 0.00 0.00 10 1014.4
20260906191102 26 184 20.9 33.8 0.00 0.00 0.00 12 1014.3
20260906191003 26 172 16.1 33.8 0.00 0.00 0.00 12 1014.4
20260906190513 26 188 9.7 33.8 0.00 0.00 0.00 13 1014.6
20260906190504 26 198 17.7 33.8 0.00 0.00 0.00 13 1014.4
20260906190029 26 195 16.1 33.8 0.00 0.00 0.00 10 1014.7
20260906190003 26 201 17.7 32.2 0.00 0.00 0.00 9 1014.7
20260906185544 26 223 24.1 38.6 0.00 0.00 0.00 11 1014.8
20260906185524 26 195 17.7 40.2 0.00 0.00 0.00 11 1014.7
20260906185106 26 167 22.5 38.6 0.00 0.00 0.00 10 1014.8
20260906185003 26 185 17.7 40.2 0.00 0.00 0.00 9 1014.7
20260906184503 26 179 14.5 30.6 0.00 0.00 0.00 12 1015.0
20260906184003 26 166 16.1 33.8 0.00 0.00 0.00 13 1015.0
20260906183514 26 200 11.3 32.2 0.00 0.00 0.00 13 1015.2
20260906183503 26 165 17.7 33.8 0.00 0.00 0.00 13 1015.0
20260906183033 26 169 19.3 35.4 0.00 0.00 0.00 13 1015.3
20260906183024 26 183 17.7 35.4 0.00 0.00 0.00 13 1014.9
20260906182549 26 160 16.1 35.4 0.00 0.00 0.00 12 1015.3
20260906182503 26 188 17.7 35.4 0.00 0.00 0.00 13 1014.9
20260906182006 26 171 19.3 24.1 0.00 0.00 0.00 14 1015.4
20260906182003 26 181 16.1 30.6 0.00 0.00 0.00 14 1014.9
20260906181525 25 184 19.3 29.0 0.00 0.00 0.00 13 1015.2
20260906181503 26 177 14.5 32.2 0.00 0.00 0.00 15 1015.0
20260906181043 25 152 16.1 27.4 0.00 0.00 0.00 17 1015.3
20260906181003 25 191 12.9 32.2 0.00 0.00 0.00 17 1015.0
20260906180600 25 163 16.1 27.4 0.00 0.00 0.00 19 1015.3
20260906180503 25 237 11.3 25.7 0.00 0.00 0.00 22 1015.0
20260906180012 24 223 20.9 25.7 0.00 0.00 0.00 22 1015.4
20260906180003 25 247 11.3 25.7 0.00 0.00 0.00 22 1015.5
20260906175503 24 250 9.7 17.7 0.00 0.00 0.00 25 1015.5
20260906175034 23 239 8.0 14.5 0.00 0.00 0.00 27 1015.7
20260906175003 24 252 8.0 16.1 0.00 0.00 0.00 25 1015.5
20260906174557 23 263 11.3 14.5 0.00 0.00 0.00 27 1015.7
20260906174524 24 247 8.0 14.5 0.00 0.00 0.00 27 1015.5
20260906174003 23 246 8.0 14.5 0.00 0.00 0.00 28 1015.9
20260906173509 23 255 14.5 14.5 0.00 0.00 0.00 27 1016.1
20260906173503 23 257 8.0 14.5 0.00 0.00 0.00 27 1015.9
20260906173030 23 273 9.7 12.9 0.00 0.00 0.00 28 1016.0
20260906173003 23 270 6.4 14.5 0.00 0.00 0.00 28 1015.9
20260906172546 22 236 3.2 14.5 0.00 0.00 0.00 30 1016.4
20260906172503 23 274 8.0 14.5 0.00 0.00 0.00 29 1016.0
20260906172003 23 271 6.4 12.9 0.00 0.00 0.00 28 1016.0
20260906171555 22 273 6.4 11.3 0.00 0.00 0.00 30 1016.2
20260906171503 22 270 4.8 11.3 0.00 0.00 0.00 30 1016.0
20260906171110 22 251 8.0 9.7 0.00 0.00 0.00 30 1016.4
20260906171003 22 268 4.8 9.7 0.00 0.00 0.00 32 1016.1
20260906170524 22 267 4.8 9.7 0.00 0.00 0.00 31 1016.1
20260906170031 21 273 6.4 9.7 0.00 0.00 0.00 31 1016.4
20260906170003 22 286 4.8 11.3 0.00 0.00 0.00 31 1016.1
20260906165545 21 272 3.2 9.7 0.00 0.00 0.00 32 1016.4
20260906165503 22 294 4.8 11.3 0.00 0.00 0.00 32 1016.3
20260906165104 21 299 4.8 6.4 0.00 0.00 0.00 34 1016.4
20260906165003 21 289 3.2 6.4 0.00 0.00 0.00 33 1016.3
20260906164515 21 289 4.8 6.4 0.00 0.00 0.00 33 1016.5
20260906164503 21 289 3.2 6.4 0.00 0.00 0.00 33 1016.3
20260906164030 21 290 1.6 6.4 0.00 0.00 0.00 32 1016.6
20260906164003 21 291 3.2 6.4 0.00 0.00 0.00 32 1016.3
20260906163550 20 290 1.6 8.0 0.00 0.00 0.00 33 1016.6
20260906163503 21 297 3.2 8.0 0.00 0.00 0.00 34 1016.3
20260906163024 20 295 4.8 8.0 0.00 0.00 0.00 35 1016.3
20260906162600 20 289 1.6 8.0 0.00 0.00 0.00 34 1016.5
20260906162503 20 292 3.2 6.4 0.00 0.00 0.00 36 1016.2
20260906162003 20 302 4.8 11.3 0.00 0.00 0.00 34 1016.3
20260906161506 19 300 3.2 9.7 0.00 0.00 0.00 34 1016.6
20260906161503 20 291 3.2 11.3 0.00 0.00 0.00 34 1016.3
20260906161016 19 273 3.2 6.4 0.00 0.00 0.00 36 1016.5
20260906161003 19 273 1.6 6.4 0.00 0.00 0.00 36 1016.3
20260906160537 18 273 1.6 4.8 0.00 0.00 0.00 37 1016.6
20260906160503 18 273 1.6 4.8 0.00 0.00 0.00 37 1016.3
20260906160058 18 273 0.0 4.8 0.00 0.00 0.00 36 1016.5
20260906160003 18 273 1.6 4.8 0.00 0.00 0.00 37 1016.3
20260906155503 18 270 3.2 11.3 0.00 0.00 0.00 38 1016.6
20260906155022 17 273 3.2 11.3 0.00 0.00 0.00 39 1016.8
20260906155003 17 276 3.2 11.3 0.00 0.00 0.00 39 1016.6
20260906154542 17 273 4.8 11.3 0.00 0.00 0.00 39 1016.7
20260906154503 17 293 3.2 11.3 0.00 0.00 0.00 39 1016.6
20260906154059 16 302 3.2 8.0 0.00 0.00 0.00 41 1016.8
20260906154003 17 302 4.8 8.0 0.00 0.00 0.00 40 1016.4
20260906153508 16 304 4.8 8.0 0.00 0.00 0.00 42 1016.8
20260906153503 16 302 3.2 8.0 0.00 0.00 0.00 42 1016.4
20260906153031 15 292 1.6 6.4 0.00 0.00 0.00 43 1016.7
20260906153003 15 305 3.2 6.4 0.00 0.00 0.00 44 1016.4
20260906152546 15 312 0.0 6.4 0.00 0.00 0.00 45 1016.7
20260906152503 15 305 3.2 6.4 0.00 0.00 0.00 45 1016.5
20260906152024 14 304 3.2 6.4 0.00 0.00 0.00 45 1016.5
20260906151529 14 304 3.2 6.4 0.00 0.00 0.00 46 1016.8
20260906151504 14 304 3.2 6.4 0.00 0.00 0.00 46 1016.5
20260906151003 14 304 3.2 6.4 0.00 0.00 0.00 47 1016.6
20260906150551 13 304 1.6 6.4 0.00 0.00 0.00 47 1016.7
20260906150524 13 306 3.2 6.4 0.00 0.00 0.00 47 1016.6
20260906150005 13 305 3.2 6.4 0.00 0.00 0.00 48 1016.9
20260906150003 13 321 3.2 6.4 0.00 0.00 0.00 48 1016.6
20260906145517 13 334 4.8 6.4 0.00 0.00 0.00 49 1016.9
20260906145503 13 346 3.2 6.4 0.00 0.00 0.00 49 1016.5
20260906145003 13 12 1.6 6.4 0.00 0.00 0.00 49 1016.5
20260906144543 12 26 0.0 4.8 0.00 0.00 0.00 49 1016.8
20260906144503 12 27 1.6 4.8 0.00 0.00 0.00 49 1016.5
20260906144100 12 27 1.6 4.8 0.00 0.00 0.00 49 1016.8
20260906144003 12 29 1.6 4.8 0.00 0.00 0.00 49 1016.5
20260906143507 12 29 3.2 6.4 0.00 0.00 0.00 49 1016.7
20260906143503 12 29 3.2 6.4 0.00 0.00 0.00 49 1016.6
20260906143029 12 30 3.2 6.4 0.00 0.00 0.00 49 1016.8
20260906143003 12 30 3.2 6.4 0.00 0.00 0.00 49 1016.6
20260906142547 11 28 4.8 6.4 0.00 0.00 0.00 48 1016.7
20260906142503 12 36 3.2 6.4 0.00 0.00 0.00 48 1016.6
20260906142214 11 31 4.8 6.4 0.00 0.00 0.00 48 1016.6
20260906142003 11 45 3.2 4.8 0.00 0.00 0.00 47 1016.4
20260906141514 11 46 3.2 4.8 0.00 0.00 0.00 46 1016.6
20260906141503 11 53 1.6 4.8 0.00 0.00 0.00 46 1016.4
20260906141030 11 56 1.6 4.8 0.00 0.00 0.00 45 1016.7
20260906141024 11 66 1.6 4.8 0.00 0.00 0.00 45 1016.4
20260906140551 11 63 1.6 4.8 0.00 0.00 0.00 45 1016.7
20260906140503 11 67 1.6 4.8 0.00 0.00 0.00 45 1016.4
20260906140110 11 65 3.2 3.2 0.00 0.00 0.00 44 1016.6
20260906140024 11 67 1.6 6.4 0.00 0.00 0.00 44 1016.4
20260906135516 11 69 0.0 4.8 0.00 0.00 0.00 44 1016.7
20260906135503 11 70 3.2 6.4 0.00 0.00 0.00 44 1016.4
20260906135033 11 69 3.2 6.4 0.00 0.00 0.00 44 1016.7
20260906135003 11 72 4.8 6.4 0.00 0.00 0.00 44 1016.4
20260906134556 11 71 4.8 6.4 0.00 0.00 0.00 44 1016.7
20260906134503 11 73 4.8 6.4 0.00 0.00 0.00 44 1016.4
20260906134004 11 69 4.8 6.4 0.00 0.00 0.00 44 1016.6
20260906133524 11 87 4.8 6.4 0.00 0.00 0.00 44 1016.4
20260906133029 10 100 4.8 8.0 0.00 0.00 0.00 44 1016.6
20260906133003 11 77 4.8 6.4 0.00 0.00 0.00 44 1016.4
20260906132546 10 67 4.8 8.0 0.00 0.00 0.00 45 1016.6
20260906132504 11 71 4.8 9.7 0.00 0.00 0.00 45 1016.4
20260906132054 10 75 3.2 9.7 0.00 0.00 0.00 45 1016.6
20260906132024 11 72 6.4 12.9 0.00 0.00 0.00 45 1016.2
20260906131505 10 67 4.8 14.5 0.00 0.00 0.00 45 1016.6
20260906131503 11 73 6.4 14.5 0.00 0.00 0.00 45 1016.2
20260906131021 10 88 11.3 14.5 0.00 0.00 0.00 46 1016.5
20260906131003 11 71 4.8 12.9 0.00 0.00 0.00 46 1016.2
20260906130540 10 61 3.2 8.0 0.00 0.00 0.00 46 1016.3
20260906130503 11 72 4.8 8.0 0.00 0.00 0.00 46 1016.1
20260906130100 11 72 6.4 8.0 0.00 0.00 0.00 46 1016.5
20260906130003 11 69 4.8 8.0 0.00 0.00 0.00 46 1016.1
20260906125506 11 75 4.8 8.0 0.00 0.00 0.00 45 1016.5
20260906125503 11 70 4.8 8.0 0.00 0.00 0.00 45 1016.1
20260906125024 11 76 4.8 6.4 0.00 0.00 0.00 45 1016.5
20260906125003 11 76 3.2 6.4 0.00 0.00 0.00 45 1016.1
20260906124545 11 77 3.2 6.4 0.00 0.00 0.00 46 1016.6
20260906124524 11 0 0.0 6.4 0.00 0.00 0.00 46 1016.1
20260906124102 11 90 1.6 1.6 0.00 0.00 0.00 46 1016.4
20260906124024 11 0 0.0 0.0 0.00 0.00 0.00 46 1016.1
20260906123510 11 90 0.0 0.0 0.00 0.00 0.00 46 1016.5
20260906123503 12 0 0.0 0.0 0.00 0.00 0.00 46 1015.8
20260906123031 11 90 0.0 1.6 0.00 0.00 0.00 46 1016.2
20260906123003 12 0 0.0 3.2 0.00 0.00 0.00 46 1015.8
20260906122548 11 90 0.0 3.2 0.00 0.00 0.00 45 1016.2
20260906122503 12 0 0.0 3.2 0.00 0.00 0.00 45 1015.8
20260906122024 12 0 0.0 3.2 0.00 0.00 0.00 44 1015.8
20260906122012 12 90 1.6 3.2 0.00 0.00 0.00 44 1016.1
20260906121533 12 90 0.0 6.4 0.00 0.00 0.00 44 1016.2
20260906121524 12 87 3.2 6.4 0.00 0.00 0.00 44 1015.8
20260906121050 12 90 1.6 9.7 0.00 0.00 0.00 44 1016.0
20260906121024 12 84 4.8 11.3 0.00 0.00 0.00 44 1015.8
20260906120503 12 82 6.4 11.3 0.00 0.00 0.00 43 1015.9
20260906120024 12 82 6.4 11.3 0.00 0.00 0.00 43 1015.9
20260906120018 12 89 6.4 9.7 0.00 0.00 0.00 43 1016.0
20260906115524 12 83 6.4 12.9 0.00 0.00 0.00 44 1015.7
20260906115507 12 76 1.6 9.7 0.00 0.00 0.00 44 1016.0
20260906115021 12 87 8.0 12.9 0.00 0.00 0.00 44 1016.1
20260906115003 12 81 8.0 12.9 0.00 0.00 0.00 44 1015.7
20260906114542 12 67 8.0 12.9 0.00 0.00 0.00 43 1016.0
20260906114503 12 76 6.4 12.9 0.00 0.00 0.00 43 1015.7
20260906114100 12 75 8.0 12.9 0.00 0.00 0.00 43 1016.0
20260906114003 12 74 6.4 11.3 0.00 0.00 0.00 43 1015.7
20260906113507 12 73 6.4 8.0 0.00 0.00 0.00 43 1016.1
20260906113503 12 75 4.8 8.0 0.00 0.00 0.00 43 1015.8
20260906113030 12 74 6.4 8.0 0.00 0.00 0.00 42 1015.9
20260906113003 12 78 4.8 8.0 0.00 0.00 0.00 42 1015.8
20260906112546 12 74 3.2 8.0 0.00 0.00 0.00 42 1016.1
20260906112503 12 78 4.8 8.0 0.00 0.00 0.00 42 1015.8
20260906112003 12 83 3.2 8.0 0.00 0.00 0.00 42 1015.7
20260906111537 12 78 4.8 6.4 0.00 0.00 0.00 42 1016.1
20260906111524 13 95 1.6 6.4 0.00 0.00 0.00 42 1015.7
20260906111053 12 97 0.0 3.2 0.00 0.00 0.00 42 1016.1
20260906111003 13 97 1.6 3.2 0.00 0.00 0.00 42 1015.7
20260906110524 13 97 1.6 3.2 0.00 0.00 0.00 42 1015.7
20260906110007 12 97 1.6 4.8 0.00 0.00 0.00 42 1016.1
20260906110003 13 91 3.2 4.8 0.00 0.00 0.00 42 1015.6
20260906105519 12 88 3.2 6.4 0.00 0.00 0.00 41 1016.0
20260906105503 13 84 3.2 6.4 0.00 0.00 0.00 41 1015.6
20260906105003 13 87 3.2 8.0 0.00 0.00 0.00 41 1015.6
20260906104542 13 85 3.2 8.0 0.00 0.00 0.00 41 1015.7
20260906104503 13 103 3.2 8.0 0.00 0.00 0.00 41 1015.6
20260906104101 13 119 3.2 4.8 0.00 0.00 0.00 43 1015.9
20260906104024 13 135 1.6 4.8 0.00 0.00 0.00 43 1015.6
20260906103525 13 145 1.6 6.4 0.00 0.00 0.00 43 1015.6
20260906103509 13 147 3.2 9.7 0.00 0.00 0.00 43 1015.9
20260906103029 13 147 3.2 9.7 0.00 0.00 0.00 43 1015.9
20260906103003 13 158 4.8 9.7 0.00 0.00 0.00 43 1015.5
20260906102545 13 148 4.8 9.7 0.00 0.00 0.00 44 1015.8
20260906102524 13 154 6.4 11.3 0.00 0.00 0.00 44 1015.5
20260906102029 12 163 8.0 11.3 0.00 0.00 0.00 44 1015.8
20260906102024 13 131 6.4 11.3 0.00 0.00 0.00 44 1015.4
20260906101548 12 121 11.3 11.3 0.00 0.00 0.00 45 1015.7
20260906101503 12 115 6.4 11.3 0.00 0.00 0.00 45 1015.3
20260906101044 12 119 8.0 11.3 0.00 0.00 0.00 44 1015.5
20260906101003 12 97 6.4 12.9 0.00 0.00 0.00 44 1015.2
20260906100604 12 117 4.8 16.1 0.00 0.00 0.00 44 1015.6
20260906100503 12 81 8.0 16.1 0.00 0.00 0.00 44 1015.2
20260906100010 12 40 9.7 16.1 0.00 0.00 0.00 43 1015.6
20260906100003 13 75 9.7 16.1 0.00 0.00 0.00 43 1015.3
20260906095523 12 84 11.3 16.1 0.00 0.00 0.00 43 1015.7
20260906095503 13 71 9.7 16.1 0.00 0.00 0.00 43 1015.3
20260906095003 13 75 8.0 14.5 0.00 0.00 0.00 42 1015.4
20260906094544 13 83 8.0 9.7 0.00 0.00 0.00 42 1015.7
20260906094503 13 91 4.8 11.3 0.00 0.00 0.00 42 1015.2
20260906094102 13 121 6.4 6.4 0.00 0.00 0.00 42 1015.5
20260906094003 14 121 1.6 4.8 0.00 0.00 0.00 42 1015.2
20260906093512 13 224 0.0 6.4 0.00 0.00 0.00 42 1015.5
20260906093503 14 207 1.6 6.4 0.00 0.00 0.00 42 1015.2
20260906093030 14 224 0.0 6.4 0.00 0.00 0.00 41 1015.5
20260906093024 14 205 1.6 6.4 0.00 0.00 0.00 41 1015.3
20260906092548 14 172 0.0 3.2 0.00 0.00 0.00 41 1015.4
20260906092503 14 0 0.0 6.4 0.00 0.00 0.00 41 1015.3
20260906092027 14 172 0.0 4.8 0.00 0.00 0.00 40 1015.4
20260906092003 14 0 0.0 6.4 0.00 0.00 0.00 40 1015.3
20260906091503 14 0 0.0 3.2 0.00 0.00 0.00 39 1015.3
20260906091050 14 34 0.0 3.2 0.00 0.00 0.00 39 1015.6
20260906091003 15 0 0.0 3.2 0.00 0.00 0.00 39 1015.1
20260906090503 15 0 0.0 3.2 0.00 0.00 0.00 39 1015.1
20260906090018 14 36 1.6 6.4 0.00 0.00 0.00 39 1015.6
20260906090003 15 0 0.0 6.4 0.00 0.00 0.00 39 1015.1
20260906085533 14 55 0.0 6.4 0.00 0.00 0.00 39 1015.4
20260906085524 15 59 1.6 6.4 0.00 0.00 0.00 39 1014.9
20260906085051 14 100 0.0 8.0 0.00 0.00 0.00 39 1015.2
20260906085003 15 10 3.2 8.0 0.00 0.00 0.00 38 1014.9
20260906084507 14 51 4.8 8.0 0.00 0.00 0.00 39 1015.2
20260906084503 15 2 3.2 8.0 0.00 0.00 0.00 39 1014.9
20260906084126 14 340 6.4 8.0 0.00 0.00 0.00 39 1015.1
20260906084003 15 20 4.8 9.7 0.00 0.00 0.00 39 1014.6
20260906083510 14 13 4.8 9.7 0.00 0.00 0.00 39 1015.0
20260906083503 15 19 4.8 9.7 0.00 0.00 0.00 39 1014.6
20260906083030 14 26 9.7 9.7 0.00 0.00 0.00 38 1015.1
20260906083003 15 22 4.8 8.0 0.00 0.00 0.00 38 1014.6
20260906082545 15 34 1.6 9.7 0.00 0.00 0.00 38 1015.1
20260906082503 15 25 4.8 11.3 0.00 0.00 0.00 38 1014.5
20260906082041 15 27 1.6 9.7 0.00 0.00 0.00 38 1014.9
20260906082024 15 24 6.4 11.3 0.00 0.00 0.00 38 1014.6
20260906081600 15 26 8.0 9.7 0.00 0.00 0.00 38 1014.9
20260906081524 15 22 6.4 11.3 0.00 0.00 0.00 37 1014.6
20260906081007 15 32 3.2 12.9 0.00 0.00 0.00 37 1014.9
20260906081003 15 18 8.0 12.9 0.00 0.00 0.00 37 1014.5
20260906080503 15 21 8.0 12.9 0.00 0.00 0.00 36 1014.5
20260906080032 15 5 6.4 9.7 0.00 0.00 0.00 35 1014.7
20260906080003 15 35 4.8 11.3 0.00 0.00 0.00 35 1014.5
20260906075546 15 31 6.4 6.4 0.00 0.00 0.00 35 1014.7
20260906075503 15 52 3.2 6.4 0.00 0.00 0.00 35 1014.4
20260906075004 15 44 1.6 6.4 0.00 0.00 0.00 34 1014.4
20260906074612 15 54 0.0 3.2 0.00 0.00 0.00 33 1014.9
20260906074524 15 24 1.6 3.2 0.00 0.00 0.00 34 1014.4
20260906074012 15 18 3.2 8.0 0.00 0.00 0.00 33 1014.8
20260906074003 15 35 1.6 8.0 0.00 0.00 0.00 33 1014.2
20260906073531 15 28 0.0 8.0 0.00 0.00 0.00 34 1014.7
20260906073503 15 51 1.6 8.0 0.00 0.00 0.00 34 1014.2
20260906073052 15 65 0.0 6.4 0.00 0.00 0.00 34 1014.7
20260906073003 15 47 3.2 6.4 0.00 0.00 0.00 34 1014.2
20260906072503 15 23 6.4 12.9 0.00 0.00 0.00 35 1014.1
20260906072022 15 39 1.6 14.5 0.00 0.00 0.00 34 1014.5
20260906072003 15 350 8.0 14.5 0.00 0.00 0.00 34 1014.0
20260906071542 15 355 9.7 14.5 0.00 0.00 0.00 32 1014.4
20260906071503 16 320 6.4 14.5 0.00 0.00 0.00 32 1014.0
20260906071058 16 344 12.9 12.9 0.00 0.00 0.00 30 1014.4
20260906071003 16 306 3.2 9.7 0.00 0.00 0.00 29 1014.0
20260906070503 16 35 3.2 4.8 0.00 0.00 0.00 28 1013.8
20260906070024 16 30 3.2 4.8 0.00 0.00 0.00 26 1013.9
20260906065504 16 13 4.8 6.4 0.00 0.00 0.00 25 1014.0
20260906065021 16 17 1.6 6.4 0.00 0.00 0.00 25 1014.2
20260906065003 17 24 3.2 8.0 0.00 0.00 0.00 25 1013.9
20260906064544 17 20 1.6 14.5 0.00 0.00 0.00 23 1014.4
20260906064503 17 332 4.8 14.5 0.00 0.00 0.00 23 1013.9
20260906064102 17 350 4.8 14.5 0.00 0.00 0.00 23 1014.4
20260906064003 17 321 6.4 14.5 0.00 0.00 0.00 22 1013.9
20260906063509 18 319 4.8 12.9 0.00 0.00 0.00 21 1014.2
20260906063503 18 317 4.8 12.9 0.00 0.00 0.00 21 1013.9
20260906063031 18 310 6.4 12.9 0.00 0.00 0.00 20 1014.3
20260906063003 18 230 6.4 12.9 0.00 0.00 0.00 19 1013.9
20260906062548 18 316 4.8 12.9 0.00 0.00 0.00 19 1014.3
20260906062503 19 174 6.4 11.3 0.00 0.00 0.00 19 1013.9
20260906062026 18 186 4.8 16.1 0.00 0.00 0.00 20 1014.1
20260906062003 19 158 8.0 17.7 0.00 0.00 0.00 20 1013.7
20260906061503 19 119 14.5 27.4 0.00 0.00 0.00 20 1013.7
20260906061024 18 99 19.3 27.4 0.00 0.00 0.00 20 1013.7
20260906060557 17 67 22.5 29.0 0.00 0.00 0.00 21 1014.0
20260906060524 18 94 20.9 29.0 0.00 0.00 0.00 22 1013.8
20260906060117 17 108 17.7 29.0 0.00 0.00 0.00 23 1014.1
20260906060004 17 93 20.9 29.0 0.00 0.00 0.00 24 1013.8
20260906055517 16 91 12.9 29.0 0.00 0.00 0.00 26 1014.1
20260906055503 16 92 22.5 29.0 0.00 0.00 0.00 26 1013.8
20260906055003 16 94 22.5 29.0 0.00 0.00 0.00 30 1013.6
20260906054541 15 102 19.3 29.0 0.00 0.00 0.00 32 1014.0
20260906054503 15 96 22.5 32.2 0.00 0.00 0.00 35 1013.6
20260906054059 15 85 27.4 32.2 0.00 0.00 0.00 34 1013.9
20260906054024 15 96 22.5 32.2 0.00 0.00 0.00 36 1013.6
20260906053508 13 101 19.3 29.0 0.00 0.00 0.00 42 1014.0
20260906053503 14 93 22.5 29.0 0.00 0.00 0.00 42 1013.9
20260906053030 13 97 22.5 30.6 0.00 0.00 0.00 45 1014.0
20260906053003 14 91 20.9 30.6 0.00 0.00 0.00 45 1013.9
20260906052546 14 77 24.1 30.6 0.00 0.00 0.00 45 1014.0
20260906052503 15 90 20.9 30.6 0.00 0.00 0.00 45 1013.9
20260906052019 15 134 17.7 30.6 0.00 0.00 0.00 42 1014.2
20260906052003 15 96 20.9 30.6 0.00 0.00 0.00 42 1013.9
20260906051539 16 115 19.3 30.6 0.00 0.00 0.00 38 1014.4
20260906051524 16 98 22.5 30.6 0.00 0.00 0.00 38 1013.9
20260906051056 17 101 22.5 29.0 0.00 0.00 0.00 35 1014.3
20260906051003 17 95 22.5 32.2 0.00 0.00 0.00 35 1013.9
20260906050506 19 102 25.7 32.2 0.00 0.00 0.00 30 1014.3
20260906050503 19 96 20.9 32.2 0.00 0.00 0.00 30 1014.1
20260906050027 20 86 22.5 27.4 0.00 0.00 0.00 16 1014.3
20260906050003 21 95 20.9 25.7 0.00 0.00 0.00 16 1014.1
20260906045543 20 90 20.9 25.7 0.00 0.00 0.00 16 1014.3
20260906045503 21 95 20.9 27.4 0.00 0.00 0.00 16 1014.1
20260906045102 20 102 19.3 29.0 0.00 0.00 0.00 17 1014.6
20260906045003 21 95 20.9 29.0 0.00 0.00 0.00 16 1014.1
20260906044503 21 92 20.9 29.0 0.00 0.00 0.00 16 1014.2
20260906044024 21 89 20.9 27.4 0.00 0.00 0.00 16 1014.2
20260906043510 21 83 20.9 27.4 0.00 0.00 0.00 16 1014.6
20260906043503 21 92 19.3 27.4 0.00 0.00 0.00 16 1014.5
20260906043032 21 95 17.7 24.1 0.00 0.00 0.00 14 1014.7
20260906043003 21 96 19.3 25.7 0.00 0.00 0.00 14 1014.5
20260906042549 21 90 20.9 25.7 0.00 0.00 0.00 14 1014.7
20260906042524 21 92 17.7 25.7 0.00 0.00 0.00 14 1014.5
20260906042004 21 76 19.3 25.7 0.00 0.00 0.00 14 1014.7
20260906041524 21 99 16.1 27.4 0.00 0.00 0.00 13 1014.8
20260906041503 21 95 19.3 27.4 0.00 0.00 0.00 13 1014.4
20260906041040 21 88 19.3 27.4 0.00 0.00 0.00 14 1014.7
20260906041003 21 94 19.3 27.4 0.00 0.00 0.00 13 1014.4
20260906040603 21 98 25.7 25.7 0.00 0.00 0.00 13 1014.9
20260906040524 21 93 20.9 25.7 0.00 0.00 0.00 13 1014.4
20260906040012 21 88 19.3 25.7 0.00 0.00 0.00 14 1014.9
20260906040003 21 94 19.3 25.7 0.00 0.00 0.00 14 1014.8
20260906035503 21 93 19.3 25.7 0.00 0.00 0.00 14 1014.8
20260906035033 21 91 22.5 24.1 0.00 0.00 0.00 13 1015.2
20260906035003 21 92 17.7 24.1 0.00 0.00 0.00 13 1014.8
20260906034555 21 85 17.7 24.1 0.00 0.00 0.00 13 1014.9
20260906034503 21 90 17.7 24.1 0.00 0.00 0.00 13 1014.8
20260906034006 21 84 16.1 24.1 0.00 0.00 0.00 13 1015.0
20260906034003 21 89 17.7 24.1 0.00 0.00 0.00 13 1014.8
20260906033524 21 89 16.1 24.1 0.00 0.00 0.00 13 1014.8
20260906033521 21 94 16.1 24.1 0.00 0.00 0.00 13 1015.1
20260906033044 22 88 16.1 24.1 0.00 0.00 0.00 12 1015.2
20260906033003 22 92 14.5 24.1 0.00 0.00 0.00 12 1014.8
20260906032503 22 97 12.9 17.7 0.00 0.00 0.00 12 1014.8
20260906032216 22 110 16.1 16.1 0.00 0.00 0.00 12 1015.2
20260906032024 22 105 11.3 16.1 0.00 0.00 0.00 12 1014.8
20260906031517 22 95 12.9 14.5 0.00 0.00 0.00 11 1015.1
20260906031503 22 112 9.7 14.5 0.00 0.00 0.00 11 1014.9
20260906031003 22 113 9.7 14.5 0.00 0.00 0.00 12 1014.9
20260906030543 22 107 11.3 14.5 0.00 0.00 0.00 12 1015.2
20260906030503 22 118 9.7 14.5 0.00 0.00 0.00 12 1014.9
20260906030003 22 122 8.0 14.5 0.00 0.00 0.00 12 1014.8
20260906025509 22 152 11.3 12.9 0.00 0.00 0.00 12 1015.1
20260906025503 22 129 8.0 12.9 0.00 0.00 0.00 12 1014.8
20260906025024 22 133 8.0 12.9 0.00 0.00 0.00 12 1014.8
20260906024537 22 94 4.8 12.9 0.00 0.00 0.00 12 1015.1
20260906024524 23 132 8.0 12.9 0.00 0.00 0.00 12 1014.8
20260906024055 22 118 4.8 12.9 0.00 0.00 0.00 12 1015.0
20260906024024 23 127 8.0 12.9 0.00 0.00 0.00 12 1014.8
20260906023505 22 127 4.8 14.5 0.00 0.00 0.00 11 1014.9
20260906023503 23 127 8.0 14.5 0.00 0.00 0.00 11 1014.8
20260906023025 23 128 4.8 14.5 0.00 0.00 0.00 11 1015.0
20260906023003 23 128 8.0 14.5 0.00 0.00 0.00 11 1014.6
20260906022540 23 120 8.0 14.5 0.00 0.00 0.00 11 1014.9
20260906022503 23 128 8.0 14.5 0.00 0.00 0.00 11 1014.6
20260906022017 23 115 4.8 14.5 0.00 0.00 0.00 11 1015.0
20260906022003 23 131 9.7 14.5 0.00 0.00 0.00 11 1014.7
20260906021537 23 105 9.7 14.5 0.00 0.00 0.00 10 1014.9
20260906021524 23 132 9.7 14.5 0.00 0.00 0.00 10 1014.6
20260906021054 23 131 8.0 14.5 0.00 0.00 0.00 10 1014.9
20260906021003 23 132 9.7 14.5 0.00 0.00 0.00 10 1014.6
20260906020505 23 154 4.8 14.5 0.00 0.00 0.00 10 1015.1
20260906020503 24 135 8.0 14.5 0.00 0.00 0.00 10 1014.6
20260906020028 24 165 6.4 14.5 0.00 0.00 0.00 9 1014.9
20260906020024 24 139 8.0 14.5 0.00 0.00 0.00 9 1014.5
20260906015543 24 140 8.0 14.5 0.00 0.00 0.00 9 1015.0
20260906015503 25 158 9.7 16.1 0.00 0.00 0.00 9 1014.5
20260906015024 25 172 11.3 24.1 0.00 0.00 0.00 9 1014.7
20260906015016 25 138 4.8 24.1 0.00 0.00 0.00 9 1015.0
20260906014540 25 161 12.9 24.1 0.00 0.00 0.00 9 1015.0
20260906014503 25 177 11.3 24.1 0.00 0.00 0.00 9 1014.9
20260906014057 25 175 16.1 22.5 0.00 0.00 0.00 9 1014.9
20260906014003 25 176 11.3 22.5 0.00 0.00 0.00 9 1014.9
20260906013507 25 172 8.0 22.5 0.00 0.00 0.00 8 1014.9
20260906013503 26 177 11.3 24.1 0.00 0.00 0.00 8 1014.9
20260906013027 26 194 9.7 22.5 0.00 0.00 0.00 8 1015.2
20260906013003 26 183 9.7 24.1 0.00 0.00 0.00 8 1014.7
20260906012546 26 195 6.4 16.1 0.00 0.00 0.00 8 1015.1
20260906012503 26 196 9.7 24.1 0.00 0.00 0.00 8 1014.7
20260906012053 26 170 6.4 24.1 0.00 0.00 0.00 8 1015.1
20260906012003 26 196 14.5 22.5 0.00 0.00 0.00 8 1014.9
20260906011613 26 207 11.3 25.7 0.00 0.00 0.00 7 1015.2
20260906011503 26 196 14.5 25.7 0.00 0.00 0.00 8 1014.9
20260906011013 26 208 14.5 25.7 0.00 0.00 0.00 7 1015.0
20260906011003 26 199 12.9 25.7 0.00 0.00 0.00 7 1014.8
20260906010503 27 204 11.3 20.9 0.00 0.00 0.00 9 1014.8
20260906010042 27 203 11.3 20.9 0.00 0.00 0.00 8 1014.9
20260906010003 27 204 12.9 20.9 0.00 0.00 0.00 8 1014.8
20260906005557 27 191 20.9 20.9 0.00 0.00 0.00 7 1015.2
20260906005503 27 197 12.9 20.9 0.00 0.00 0.00 7 1014.8
20260906005006 27 173 9.7 20.9 0.00 0.00 0.00 6 1015.2
20260906005003 27 192 11.3 20.9 0.00 0.00 0.00 6 1014.8
20260906004503 27 196 12.9 27.4 0.00 0.00 0.00 7 1014.8
20260906004019 27 182 3.2 29.0 0.00 0.00 0.00 8 1015.1
20260906004003 27 211 16.1 29.0 0.00 0.00 0.00 7 1014.8
20260906003503 27 212 16.1 30.6 0.00 0.00 0.00 8 1014.8
20260906003003 27 201 12.9 30.6 0.00 0.00 0.00 7 1014.8
20260906002546 27 197 16.1 19.3 0.00 0.00 0.00 7 1015.1
20260906002503 27 197 9.7 17.7 0.00 0.00 0.00 8 1014.6
20260906002003 28 189 11.3 20.9 0.00 0.00 0.00 9 1014.5
20260906001552 27 225 8.0 20.9 0.00 0.00 0.00 10 1015.1
20260906001503 27 187 12.9 25.7 0.00 0.00 0.00 9 1014.5
20260906001003 27 202 4.8 32.2 0.00 0.00 0.00 8 1014.7
20260906000520 27 139 11.3 32.2 0.00 0.00 0.00 7 1014.9
20260906000503 27 214 12.9 32.2 0.00 0.00 0.00 8 1014.6
20260906000003 27 201 11.3 22.5 0.00 0.00 0.00 9 1014.6
20260905235532 27 159 8.0 22.5 0.00 0.00 0.00 9 1014.8
20260905235503 27 189 12.9 22.5 0.00 0.00 0.00 9 1014.6
20260905235053 27 202 20.9 32.2 0.00 0.00 0.00 9 1015.0
20260905235024 27 197 14.5 32.2 0.00 0.00 0.00 8 1014.6